Weather History for KDVO - March, 2014

Change the Weather History Date:

Tuesday, March 18, 2014

  Actual Average (KAPC) Record (KAPC)
Temperature  
Mean Temperature 55 °F 52 °F  
Max Temperature 71 °F 64 °F 79 °F (2004)
Min Temperature 39 °F 40 °F 32 °F (1920)
Degree Days  
Heating Degree Days 10    
Month to date heating degree days  
Since 1 July heating degree days  
Cooling Degree Days 0    
Month to date cooling degree days  
Year to date cooling degree days  
Growing Degree Days 5 (Base 50)    
Moisture  
Dew Point 37 °F    
Average Humidity 58    
Maximum Humidity 100    
Minimum Humidity 22    
Precipitation  
Precipitation 0.00 in - 0.79 in (2011)
Month to date precipitation  
Year to date precipitation  
Sea Level Pressure  
Sea Level Pressure 29.95 in    
Wind  
Wind Speed 2 mph (WNW)    
Max Wind Speed 12 mph    
Max Gust Speed -    
Visibility 10 miles    
Events      
T = Trace of Precipitation, MM = Missing Value Source: NWS Daily Summary

Daily Weather History Graph

Daily Weather History Graph

Search for Another Location

Airport or City:

Trip Planner

Search our weather history database for the weather conditions in past years. The results will help you decide how hot, cold, wet, or windy it might be!

Date:

Astronomy

Mar. 18, 2014 Rise Set
Actual Time 7:16 AM PDT 7:20 PM PDT
Civil Twilight 6:50 AM PDT 7:46 PM PDT
Nautical Twilight 6:19 AM PDT 8:17 PM PDT
Astronomical Twilight 5:48 AM PDT 8:48 PM PDT
Moon 9:40 PM PDT (3/18) 8:11 AM PDT (3/18)
Length of Visible Light 12h 56m
Length of Day
12h 03m
Waning Gibbous, 96% of the Moon is Illuminated
Mar 18
Waning Gibbous
Mar 23
Last Quarter
Mar 30
New
Apr 7
First Quarter
Apr 15
Full

Hourly Weather History & Observations

Time (PDT) Temp. Windchill Dew Point Humidity Pressure Visibility Wind Dir Wind Speed Gust Speed Precip Events Conditions
12:15 AM 48.2 °F - 42.8 °F 82% 30.00 in 10.0 mi Calm Calm - N/A   Clear
12:35 AM 46.4 °F 45.2 °F 42.8 °F 87% 30.00 in 10.0 mi ESE 3.5 mph - N/A   Clear
12:55 AM 46.4 °F 45.2 °F 44.6 °F 93% 29.99 in 10.0 mi North 3.5 mph - N/A   Clear
1:15 AM 48.2 °F - 42.8 °F 82% 29.99 in 10.0 mi Calm Calm - N/A   Clear
1:35 AM 46.4 °F - 42.8 °F 87% 29.99 in 10.0 mi Calm Calm - N/A   Clear
1:55 AM 46.4 °F - 42.8 °F 87% 29.99 in 10.0 mi Calm Calm - N/A   Clear
2:15 AM 44.6 °F - 41.0 °F 87% 29.98 in 10.0 mi Calm Calm - N/A   Clear
2:35 AM 44.6 °F 41.4 °F 41.0 °F 87% 29.98 in 10.0 mi South 5.8 mph - N/A   Clear
2:55 AM 44.6 °F - 41.0 °F 87% 29.97 in 10.0 mi Calm Calm - N/A   Clear
3:15 AM 44.6 °F - 41.0 °F 87% 29.97 in 10.0 mi Calm Calm - N/A   Clear
3:35 AM 44.6 °F 41.4 °F 41.0 °F 87% 29.96 in 10.0 mi NNW 5.8 mph - N/A   Clear
3:55 AM 44.6 °F 42.2 °F 41.0 °F 87% 29.96 in 10.0 mi NW 4.6 mph - N/A   Clear
4:15 AM 44.6 °F - 41.0 °F 87% 29.95 in 10.0 mi Calm Calm - N/A   Clear
4:35 AM 44.6 °F - 41.0 °F 87% 29.95 in 10.0 mi Calm Calm - N/A   Clear
4:55 AM 44.6 °F - 41.0 °F 87% 29.95 in 10.0 mi Calm Calm - N/A   Clear
5:15 AM 41.0 °F - 39.2 °F 93% 29.95 in 10.0 mi Calm Calm - N/A   Clear
5:35 AM 41.0 °F - 39.2 °F 93% 29.95 in 10.0 mi Calm Calm - N/A   Clear
5:55 AM 41.0 °F - 39.2 °F 93% 29.94 in 10.0 mi Calm Calm - N/A   Clear
6:15 AM 41.0 °F 39.0 °F 39.2 °F 93% 29.94 in 10.0 mi NW 3.5 mph - N/A   Clear
6:35 AM 41.0 °F - 39.2 °F 93% 29.94 in 10.0 mi Calm Calm - N/A   Clear
6:55 AM 41.0 °F - 39.2 °F 93% 29.94 in 10.0 mi Calm Calm - N/A   Clear
7:15 AM 39.2 °F - 39.2 °F 100% 29.95 in 10.0 mi Calm Calm - N/A   Clear
7:35 AM 41.0 °F - 39.2 °F 93% 29.96 in 10.0 mi Calm Calm - N/A   Clear
7:55 AM 41.0 °F - 39.2 °F 93% 29.96 in 10.0 mi Calm Calm - N/A   Clear
8:15 AM 44.6 °F - 41.0 °F 87% 29.96 in 10.0 mi Calm Calm - N/A   Clear
8:35 AM 46.4 °F - 42.8 °F 87% 29.97 in 10.0 mi Calm Calm - N/A   Clear
8:55 AM 48.2 °F - 44.6 °F 87% 29.98 in 10.0 mi NNW 3.5 mph - N/A   Clear
9:15 AM 50.0 °F - 41.0 °F 71% 29.98 in 10.0 mi Calm Calm - N/A   Clear
9:35 AM 51.8 °F - 41.0 °F 67% 29.98 in 10.0 mi Calm Calm - N/A   Clear
9:55 AM 53.6 °F - 41.0 °F 62% 29.98 in 10.0 mi Calm Calm - N/A   Clear
10:15 AM 55.4 °F - 41.0 °F 58% 29.98 in 10.0 mi Calm Calm - N/A   Clear
10:35 AM 59.0 °F - 37.4 °F 45% 29.98 in 10.0 mi SSW 3.5 mph - N/A   Clear
10:55 AM 62.6 °F - 37.4 °F 39% 29.98 in 10.0 mi South 4.6 mph - N/A   Clear
11:15 AM 62.6 °F - 32.0 °F 32% 29.98 in 10.0 mi SW 4.6 mph - N/A   Clear
11:35 AM 64.4 °F - 28.4 °F 26% 29.97 in 10.0 mi South 3.5 mph - N/A   Clear
11:55 AM 66.2 °F - 28.4 °F 24% 29.97 in 10.0 mi ESE 4.6 mph - N/A   Clear
12:15 PM 66.2 °F - 28.4 °F 24% 29.96 in 10.0 mi Calm Calm - N/A   Clear
12:35 PM 66.2 °F - 28.4 °F 24% 29.96 in 10.0 mi South 6.9 mph - N/A   Clear
12:55 PM 68.0 °F - 30.2 °F 24% 29.96 in 10.0 mi SSE 3.5 mph - N/A   Clear
1:15 PM 68.0 °F - 30.2 °F 24% 29.96 in 10.0 mi SSE 5.8 mph - N/A   Clear
1:35 PM 68.0 °F - 30.2 °F 24% 29.95 in 10.0 mi Calm Calm - N/A   Clear
1:55 PM 69.8 °F - 32.0 °F 25% 29.94 in 10.0 mi East 5.8 mph - N/A   Clear
2:15 PM 71.6 °F - 32.0 °F 23% 29.93 in 10.0 mi ESE 6.9 mph - N/A   Clear
2:35 PM 71.6 °F - 30.2 °F 22% 29.93 in 10.0 mi SW 3.5 mph - N/A   Clear
2:55 PM 71.6 °F - 32.0 °F 23% 29.92 in 10.0 mi South 5.8 mph - N/A   Clear
3:15 PM 71.6 °F - 32.0 °F 23% 29.92 in 10.0 mi SSE 4.6 mph - N/A   Clear
3:35 PM 71.6 °F - 30.2 °F 22% 29.92 in 10.0 mi Calm Calm - N/A   Clear
3:55 PM 71.6 °F - 39.2 °F 31% 29.91 in 10.0 mi West 10.4 mph - N/A   Clear
4:15 PM 71.6 °F - 39.2 °F 31% 29.91 in 10.0 mi West 3.5 mph - N/A   Clear
4:35 PM 71.6 °F - 39.2 °F 31% 29.91 in 10.0 mi NNW 5.8 mph - N/A   Clear
4:55 PM 69.8 °F - 39.2 °F 33% 29.91 in 10.0 mi North 10.4 mph - N/A   Clear
5:15 PM 69.8 °F - 37.4 °F 31% 29.91 in 10.0 mi NNW 11.5 mph - N/A   Clear
5:35 PM 68.0 °F - 35.6 °F 30% 29.91 in 10.0 mi NNW 10.4 mph - N/A   Clear
5:55 PM 66.2 °F - 33.8 °F 30% 29.91 in 10.0 mi NW 10.4 mph - N/A   Clear
6:15 PM 66.2 °F - 32.0 °F 28% 29.91 in 10.0 mi North 9.2 mph - N/A   Clear
6:35 PM 64.4 °F - 32.0 °F 30% 29.92 in 10.0 mi NNW 10.4 mph - N/A   Clear
6:55 PM 60.8 °F - 33.8 °F 36% 29.92 in 10.0 mi NNW 8.1 mph - N/A   Clear
7:15 PM 59.0 °F - 32.0 °F 36% 29.93 in 10.0 mi WNW 4.6 mph - N/A   Clear
7:35 PM 57.2 °F - 35.6 °F 44% 29.93 in 10.0 mi North 4.6 mph - N/A   Clear
7:55 PM 57.2 °F - 35.6 °F 44% 29.94 in 10.0 mi NW 3.5 mph - N/A   Clear
8:15 PM 55.4 °F - 32.0 °F 41% 29.94 in 10.0 mi NNW 3.5 mph - N/A   Clear
8:35 PM 55.4 °F - 32.0 °F 41% 29.95 in 10.0 mi NNW 3.5 mph - N/A   Clear
8:55 PM 53.6 °F - 32.0 °F 44% 29.96 in 10.0 mi Calm Calm - N/A   Clear
9:15 PM 53.6 °F - 33.8 °F 47% 29.96 in 10.0 mi Calm Calm - N/A   Clear
9:35 PM 50.0 °F - 39.2 °F 66% 29.96 in 10.0 mi Calm Calm - N/A   Clear
9:55 PM 50.0 °F - 35.6 °F 58% 29.96 in 10.0 mi Calm Calm - N/A   Clear
10:15 PM 50.0 °F - 32.0 °F 50% 29.96 in 10.0 mi Calm Calm - N/A   Clear
10:35 PM 48.2 °F - 33.8 °F 58% 29.97 in 10.0 mi Calm Calm - N/A   Clear
10:55 PM 48.2 °F - 35.6 °F 62% 29.98 in 10.0 mi Calm Calm - N/A   Clear
11:15 PM 46.4 °F - 37.4 °F 71% 29.98 in 10.0 mi Calm Calm - N/A   Clear
11:35 PM 46.4 °F 45.2 °F 37.4 °F 71% 29.98 in 10.0 mi SSW 3.5 mph - N/A   Clear
11:55 PM 46.4 °F 43.5 °F 37.4 °F 71% 29.98 in 10.0 mi SSW 5.8 mph - N/A   Clear